Find Starlink 34164

NORAD ID: 64177 Int'l Des: 2025-113 Owner: SPXS Country: US Constellation: starlink operational
LEOCIRCULAR

Aktuelle Ansicht

3D-Globus wird geladen...

Über Starlink 34164

Beschreibung wird geladen...

Nächste Überflüge

Passes for default location (London). Set your location on the main map for personalized predictions.

Höhenverlauf

Loading altitude history...

Zweizeiliger Elementsatz

1 64177U 25113H 26149.10178175 .00017919 00000-0 61532-3 0 9996
2 64177 53.1593 77.8353 0001306 85.3359 274.7791 15.30218158 57372
Epoch: 29. Mai 2026 • Age: 28 hours

Aktueller Status

Höhe 475.2 km
Geschwindigkeit 7.63 km/s
Subsatellitenpunkt 5.67°N, 88.49°E
Startdatum 28. Mai 2025
Alter 1 years
Typ internet

Technische Details

Klassifizierung Payload
Masse 575.00 kg
Trockenmasse 530.00 kg
Gesamtmasse 575.00 kg
Länge 0.30 m
Durchmesser 4.10 m
Spannweite 29.00 m
Form Box + pan
Hersteller SPXS
Bus-Typ Starlink V2MO
Phasenstatus In Orbit
Besitzer/Staat SPXS/US

Most Searched